Regional Weather Roundup
Issued by NWS

Home | Current Version | Previous Version | Text Only | Print | Product List | Glossary Off
Versions: 1 2 3 4 5 6 7 8 9 10 11 12 13 14 15 16 17 18 19 20 21 22 23 24 25 26 27 28 29 30 31 32 33 34 35 36 37 38 39 40 41 42 43 44 45 46 47 48 49 50

000
ASUS43 KIND 101009
RWRIN

WEATHER ROUNDUP FOR INDIANA
NATIONAL WEATHER SERVICE INDIANAPOLIS IN
500 AM EST SUN DEC 10 2017

NOTE: "FAIR" INDICATES FEW OR NO CLOUDS BELOW 12,000 FEET WITH NO
SIGNIFICANT WEATHER AND/OR OBSTRUCTIONS TO VISIBILITY.

* - STATION DOES NOT REPORT WEATHER SUCH AS PRECIPITATION OR FOG.

+ - STATION NOT QUALITY CONTROLLED BY THE NATIONAL WEATHER SERVICE.
    USE DATA WITH CAUTION...ESPECIALLY DEWPOINT AND RELATIVE
    HUMIDITY OBSERVATIONS.

INZ001>003-010>013-019-020-101100-
NORTHWEST INDIANA

CITY           SKY/WX    TMP DP  RH WIND       PRES   REMARKS
GARY /AIRPORT/ CLOUDY    22  14  72 S6        29.99F WCI  14
KNOX *+        CLOUDY    14  10  85 SW5       30.02F WCI   6
LA PORTE +     CLOUDY    16  11  82 SW7       30.00F WCI   6
MICHIGAN CITY+ PTCLDY    19  12  73 SW10      29.99F WCI   8
MONTICELLO +   PTCLDY    18  13  80 SW6       30.05S WCI  10
RENSSELAER +   CLOUDY    18  12  79 S9        30.02F WCI   6
VALPARAISO     CLOUDY    17  12  80 SW8       30.00F WCI   7

$$

LMZ046-743>745-101100-
SOUTHERN LAKE MICHIGAN

STATION/POSITION TIME  TEMP    WIND        PRES    WAVE
                       AIR SEA DIR/SP/G            HT
                 (UTC) (F)     (DEG/KT/KT) (MB)    (FT)
BURNS HARBOR     0940   21     210/ 11/ 14 1016.3F
MICHIGAN CITY    0940   20     190/ 13/ 15   N/A

$$

INZ004-005-014>016-021>024-101100-
NORTH CENTRAL INDIANA

CITY           SKY/WX    TMP DP  RH WIND       PRES   REMARKS
GOSHEN         PTCLDY    19  12  74 SW10      29.99F WCI   7
LOGANSPORT +   CLOUDY    18  14  86 SW8       30.05F WCI   7
PERU/GRISSOM   CLOUDY    15  12  88 SW8       30.03F WCI   4
ROCHESTER +    PTCLDY    18  14  86 SW6       30.03F WCI   9
SOUTH BEND     PTCLDY    17  13  84 SW12      29.99F WCI   4
WARSAW +       PTCLDY    18  12  79 W8        30.01S WCI   7

$$

INZ006>009-017-018-025>027-101100-
NORTHEAST INDIANA

CITY           SKY/WX    TMP DP  RH WIND       PRES   REMARKS
AUBURN +       PTCLDY    23  18  80 SW7       29.99F WCI  15
FORT WAYNE     PTCLDY    19  13  77 W10       30.02S WCI   7
HUNTINGTON +   CLEAR     18  12  80 SW6       30.02F WCI   9
KENDALLVILLE + CLOUDY    20  15  81 W12       29.97F WCI   8

$$

INZ028-029-035-036-043>045-051>053-101100-
WEST CENTRAL INDIANA

CITY           SKY/WX    TMP DP  RH WIND       PRES   REMARKS
CRAWFORDSVL +  CLEAR     17  14  90 SW7         N/A  WCI   7
GREENCASTLE +  CLOUDY    19  14  79 CALM      30.10S
LAFAYETTE      CLOUDY    18  15  88 SW5       30.07F WCI  11
TERRE HAUTE    CLOUDY    21  14  74 SW6       30.13F WCI  13

$$

INZ030>032-037>040-046>048-054>057-064-065-101100-
CENTRAL INDIANA

CITY           SKY/WX    TMP DP  RH WIND       PRES   REMARKS
FRANKFORT +    PTCLDY    22  17  81 W8        30.07S WCI  12
INDIANAPOLIS   CLOUDY    19  14  81 SW9       30.10S WCI   8
-EAGLE CREEK   PTCLDY    20  13  74 VRB5      30.08S WCI  13
KOKOMO +       CLEAR     15  12  88 SW8       30.05F WCI   4
MARION +       PTCLDY    16  12  84 SW8       30.05F FOG     WCI   5
MT COMFORT *+  CLOUDY    18  16  93 SW5       30.08F WCI  11
SHELBYVILLE    CLOUDY    18  12  77 SW8       30.09F WCI   8
ZIONSVILLE +   CLOUDY    18  14  84 SW6       30.07S WCI  10

$$

INZ033-034-041-042-049-050-058-059-101100-
EAST CENTRAL INDIANA

CITY           SKY/WX    TMP DP  RH WIND       PRES   REMARKS
MUNCIE         CLEAR     20  13  74 SW7       30.05S WCI  11
RICHMOND +     CLEAR     18  14  86 SW8       30.07R WCI   7

$$

INZ060-061-067>069-081>083-085>088-101100-
SOUTHWEST INDIANA

CITY           SKY/WX    TMP DP  RH WIND       PRES   REMARKS
EVANSVILLE     CLEAR     22  16  78 SW5       30.20F WCI  16
HUNTINGBURG +  CLEAR     21  16  81 SW5       30.18  WCI  15
WASHINGTON +   CLEAR     22  14  71 SW9       30.17S WCI  12

$$

INZ062-063-066-070>080-084-089>092-101100-
SOUTH CENTRAL AND SOUTHEAST INDIANA

CITY           SKY/WX    TMP DP  RH WIND       PRES   REMARKS
BEDFORD +      CLOUDY    21  16  79 SW5       30.13F WCI  15
BLOOMINGTON    PTCLDY    20  14  77 SW6       30.11F WCI  12
MADISON *+     CLEAR     23  14  68 SW5       30.16S WCI  17
NORTH VERNON + CLOUDY    18  14  86 SW7       30.13F WCI   8
SEYMOUR +      PTCLDY    21  14  73 SW6       30.14F WCI  14

$$





USA.gov is the U.S. government's official web portal to all federal, state and local government web resources and services.